Location: Colebrook
(42.0017°N, 73.0973°W)
Time: 03:24:11
(UTC-04:00)

Courier 1B - All Passes

Search period start: 21 October 2021 00:00
Search period end: 31 October 2021 00:00
Orbit: 962 x 1209 km, 28.3° (Epoch: 20 October)

Date Brightness Start Highest point End Pass type
(mag) Time Alt. Az. Time Alt. Az. Time Alt. Az.
21 Oct - 10:26:25 10° SSW 10:31:17 18° SSE 10:35:58 10° ESE daylight
21 Oct - 12:18:35 10° SW 12:24:29 26° S 12:30:07 10° ESE daylight
21 Oct - 14:12:20 10° WSW 14:17:41 23° SSW 14:22:48 10° SE daylight
21 Oct - 16:08:26 10° SW 16:10:35 12° SSW 16:12:41 10° S daylight
22 Oct - 09:33:28 10° SSW 09:37:39 16° SSE 09:41:43 10° SE daylight
22 Oct - 11:24:56 10° SW 11:30:51 25° S 11:36:30 10° ESE daylight
22 Oct - 13:18:21 10° WSW 13:24:06 25° S 13:29:35 10° SE daylight
22 Oct - 15:13:22 10° SW 15:17:07 15° SSW 15:20:46 10° SSE daylight
23 Oct - 08:41:03 10° S 08:44:02 13° SSE 08:46:58 10° SE daylight
23 Oct - 10:31:23 10° SW 10:37:11 24° SSE 10:42:47 10° ESE daylight
23 Oct - 12:24:27 10° WSW 12:30:29 27° S 12:36:14 10° SE daylight
23 Oct - 14:18:54 10° WSW 14:23:36 19° SSW 14:28:08 10° SSE daylight
24 Oct - 09:37:58 10° SSW 09:43:31 21° SSE 09:48:54 10° ESE daylight
24 Oct - 11:30:37 10° SW 11:36:49 28° S 11:42:45 10° SE daylight
24 Oct - 13:24:40 10° WSW 13:30:02 22° SSW 13:35:12 10° SSE daylight
25 Oct - 08:44:47 10° SSW 08:49:51 19° SSE 08:54:49 10° ESE daylight
25 Oct - 10:36:53 10° SW 10:43:08 27° S 10:49:09 10° ESE daylight
25 Oct - 12:30:35 10° WSW 12:36:26 25° S 12:42:03 10° SE daylight
25 Oct - 14:26:14 10° SW 14:29:26 13° SSW 14:32:34 10° S daylight
26 Oct - 07:51:56 10° S 07:56:12 16° SSE 08:00:25 10° SE daylight
26 Oct - 09:43:14 10° SW 09:49:26 26° S 09:55:27 10° ESE daylight
26 Oct - 11:36:36 10° WSW 11:42:47 27° S 11:48:44 10° SE daylight
26 Oct - 13:31:26 10° WSW 13:35:55 17° SSW 13:40:15 10° SSE daylight
27 Oct - 06:59:43 10° S 07:02:34 12° SSE 07:05:25 10° SE daylight
27 Oct - 08:49:44 10° SW 08:55:43 24° SSE 09:01:36 10° ESE daylight
27 Oct - 10:42:42 10° WSW 10:49:05 28° S 10:55:16 10° SE daylight
27 Oct - 12:37:02 10° WSW 12:42:20 21° SSW 12:47:27 10° SSE daylight
28 Oct - 07:56:25 10° SSW 08:02:02 22° SSE 08:07:35 10° ESE daylight
28 Oct - 09:48:54 10° SW 09:55:22 29° S 10:01:41 10° ESE daylight
28 Oct - 11:42:51 10° WSW 11:48:42 24° SSW 11:54:22 10° SE daylight
28 Oct - 13:39:27 10° SW 13:41:42 11° SSW 13:43:55 10° S daylight
29 Oct - 07:03:21 10° SSW 07:08:21 18° SSE 07:13:21 10° ESE daylight
29 Oct - 08:55:13 10° SW 09:01:38 28° S 09:07:58 10° ESE daylight
29 Oct - 10:48:48 10° WSW 10:55:02 27° S 11:01:05 10° SE daylight
29 Oct - 12:44:05 10° WSW 12:48:09 15° SSW 12:52:07 10° S daylight
30 Oct - 06:10:41 10° S 06:14:42 15° SSE 06:18:45 10° SE visible
30 Oct - 08:01:40 10° SW 08:07:54 26° S 08:14:07 10° ESE daylight
30 Oct - 09:54:52 10° WSW 10:01:19 28° S 10:07:38 10° SE daylight
30 Oct - 11:49:29 10° WSW 11:54:34 19° SSW 11:59:30 10° SSE daylight
